Location: Newark
(40.9833°N, 0.0333°W)
Time: 02:27:00
(UTC+00:00)

deb Explorer IX - Pass Details

Date: 02 November 2020
Orbit: 537 x 1105 km, 38.8° (Epoch: 02 December)

Event Time Altitude Azimuth Distance (km) Brightness Sun altitude
Rises 05:00:44 0° 258° (WSW) 3,175 - -17.7°
Reaches altitude 10° 05:03:01 10° 256° (WSW) 2,335 - -17.3°
Exits shadow 05:05:07 25° 252° (WSW) 1,607 ? -16.9°
Maximum altitude 05:08:34 71° 173° (S) 928 ? -16.3°
Drops below altitude 10° 05:15:06 10° 91° (E) 2,735 ? -15.0°
Sets 05:17:58 0° 90° (E) 3,758 ? -14.5°
